TimeCDT,TemperatureF,Dew PointF,Humidity,Sea Level PressureIn,VisibilityMPH,Wind Direction,Wind SpeedMPH,Gust SpeedMPH,PrecipitationIn,Events,Conditions,WindDirDegrees,DateUTC
12:15 AM,75.4,68.5,79,29.83,10.0,WSW,5.8,-,N/A,,Clear,250,2013-07-20 05:15:00
12:35 AM,75.7,68.4,78,29.83,10.0,West,5.8,-,N/A,,Scattered Clouds,280,2013-07-20 05:35:00
12:55 AM,76.1,67.3,74,29.84,10.0,WNW,6.9,-,N/A,,Mostly Cloudy,290,2013-07-20 05:55:00
1:15 AM,75.0,67.1,76,29.84,10.0,West,6.9,-,N/A,,Mostly Cloudy,280,2013-07-20 06:15:00
1:35 AM,75.2,67.1,76,29.83,10.0,WNW,6.9,-,N/A,,Overcast,300,2013-07-20 06:35:00
1:55 AM,75.0,66.9,76,29.83,10.0,NW,6.9,-,N/A,,Mostly Cloudy,310,2013-07-20 06:55:00
2:15 AM,73.9,67.8,81,29.83,10.0,WNW,3.5,-,N/A,,Mostly Cloudy,300,2013-07-20 07:15:00
2:35 AM,73.4,67.8,83,29.83,10.0,NW,4.6,-,N/A,,Overcast,320,2013-07-20 07:35:00
2:55 AM,73.6,68.0,83,29.83,10.0,Calm,Calm,-,N/A,,Overcast,0,2013-07-20 07:55:00
3:15 AM,73.2,68.0,84,29.83,10.0,NNW,3.5,-,N/A,Thunderstorm,Overcast,330,2013-07-20 08:15:00
3:35 AM,74.5,67.3,78,29.83,10.0,Calm,Calm,-,N/A,Thunderstorm,Mostly Cloudy,0,2013-07-20 08:35:00
3:55 AM,72.7,66.7,82,29.83,10.0,NNW,3.5,-,N/A,,Scattered Clouds,330,2013-07-20 08:55:00
4:15 AM,73.2,66.2,79,29.84,10.0,NW,3.5,-,N/A,,Clear,320,2013-07-20 09:15:00
4:35 AM,72.7,65.5,78,29.84,10.0,NNW,3.5,-,N/A,,Scattered Clouds,330,2013-07-20 09:35:00
4:55 AM,72.5,64.9,77,29.84,10.0,Calm,Calm,-,N/A,,Scattered Clouds,0,2013-07-20 09:55:00
5:15 AM,71.6,64.8,79,29.84,10.0,NW,3.5,-,N/A,,Scattered Clouds,320,2013-07-20 10:15:00
5:35 AM,70.0,64.4,82,29.84,10.0,NNW,4.6,-,N/A,,Clear,330,2013-07-20 10:35:00
5:55 AM,70.0,64.4,82,29.85,10.0,Calm,Calm,-,N/A,,Clear,0,2013-07-20 10:55:00
6:15 AM,70.3,63.9,80,29.86,10.0,North,5.8,-,N/A,,Clear,350,2013-07-20 11:15:00
6:35 AM,70.7,64.8,81,29.87,10.0,North,4.6,-,N/A,,Clear,350,2013-07-20 11:35:00
6:55 AM,72.0,64.0,76,29.87,10.0,North,6.9,-,N/A,,Clear,360,2013-07-20 11:55:00
7:15 AM,72.9,63.1,71,29.87,10.0,North,8.1,-,N/A,,Clear,10,2013-07-20 12:15:00
7:35 AM,73.9,63.0,68,29.87,10.0,NNE,5.8,-,N/A,,Clear,20,2013-07-20 12:35:00
7:55 AM,75.0,63.5,67,29.88,10.0,North,5.8,-,N/A,,Clear,360,2013-07-20 12:55:00
8:15 AM,76.1,63.1,64,29.88,10.0,NNE,4.6,-,N/A,,Clear,30,2013-07-20 13:15:00
8:35 AM,77.4,63.5,62,29.89,10.0,NNE,5.8,-,N/A,,Clear,30,2013-07-20 13:35:00
8:55 AM,78.1,63.1,60,29.89,10.0,North,4.6,-,N/A,,Clear,10,2013-07-20 13:55:00
9:15 AM,78.8,62.6,57,29.89,10.0,East,3.5,-,N/A,,Clear,90,2013-07-20 14:15:00
9:35 AM,79.7,62.4,55,29.89,10.0,NNE,3.5,-,N/A,,Clear,30,2013-07-20 14:35:00
9:55 AM,81.0,61.7,52,29.90,10.0,NE,4.6,-,N/A,,Clear,50,2013-07-20 14:55:00
10:15 AM,81.7,59.7,47,29.90,10.0,NNE,3.5,-,N/A,,Clear,30,2013-07-20 15:15:00
10:35 AM,82.2,56.3,41,29.91,10.0,NE,4.6,-,N/A,,Clear,50,2013-07-20 15:35:00
10:55 AM,82.6,57.7,43,29.91,10.0,North,3.5,-,N/A,,Clear,360,2013-07-20 15:55:00
11:15 AM,83.5,58.3,42,29.91,10.0,Calm,Calm,-,N/A,,Clear,0,2013-07-20 16:15:00
11:35 AM,83.5,56.1,39,29.91,10.0,Calm,Calm,-,N/A,,Clear,0,2013-07-20 16:35:00
11:55 AM,84.0,57.9,41,29.91,10.0,North,6.9,-,N/A,,Clear,350,2013-07-20 16:55:00
12:15 PM,84.7,58.6,41,29.91,10.0,NNE,8.1,-,N/A,,Clear,20,2013-07-20 17:15:00
12:35 PM,84.6,55.0,36,29.90,10.0,NNE,5.8,-,N/A,,Clear,30,2013-07-20 17:35:00
12:55 PM,85.1,55.2,36,29.90,10.0,Calm,Calm,-,N/A,,Clear,0,2013-07-20 17:55:00
1:15 PM,85.6,58.5,40,29.89,10.0,North,4.6,-,N/A,,Clear,10,2013-07-20 18:15:00
1:35 PM,85.3,58.3,40,29.89,10.0,NNW,4.6,-,N/A,,Scattered Clouds,330,2013-07-20 18:35:00
1:55 PM,85.3,59.0,41,29.89,10.0,North,5.8,16.1,N/A,,Clear,350,2013-07-20 18:55:00
2:15 PM,86.0,56.1,36,29.89,10.0,North,12.7,-,N/A,,Clear,360,2013-07-20 19:15:00
2:35 PM,85.6,56.7,37,29.88,10.0,WNW,8.1,-,N/A,,Clear,300,2013-07-20 19:35:00
2:55 PM,86.0,54.9,34,29.88,10.0,NNE,5.8,-,N/A,,Clear,20,2013-07-20 19:55:00
3:15 PM,86.0,54.9,34,29.88,10.0,NW,8.1,-,N/A,,Clear,310,2013-07-20 20:15:00
3:35 PM,86.2,56.8,37,29.88,10.0,North,10.4,-,N/A,,Clear,10,2013-07-20 20:35:00
3:55 PM,86.2,56.1,36,29.87,10.0,North,6.9,-,N/A,,Clear,10,2013-07-20 20:55:00
4:15 PM,86.0,55.9,36,29.86,10.0,North,5.8,-,N/A,,Clear,10,2013-07-20 21:15:00
4:35 PM,86.9,54.5,33,29.85,10.0,NNE,5.8,-,N/A,,Clear,20,2013-07-20 21:35:00
4:55 PM,86.0,56.5,36,29.86,10.0,North,5.8,-,N/A,,Clear,360,2013-07-20 21:55:00
5:15 PM,86.7,58.3,38,29.86,10.0,NNW,9.2,-,N/A,,Clear,330,2013-07-20 22:15:00
5:35 PM,85.6,56.8,37,29.86,10.0,North,8.1,-,N/A,,Scattered Clouds,10,2013-07-20 22:35:00
5:55 PM,86.0,55.9,36,29.86,10.0,NNW,3.5,-,N/A,,Scattered Clouds,330,2013-07-20 22:55:00
6:15 PM,84.4,59.2,42,29.87,10.0,NNW,4.6,-,N/A,,Clear,330,2013-07-20 23:15:00
6:35 PM,84.6,55.8,37,29.87,10.0,NNW,3.5,-,N/A,,Scattered Clouds,330,2013-07-20 23:35:00
6:55 PM,83.7,58.8,43,29.88,10.0,NE,6.9,-,N/A,,Scattered Clouds,40,2013-07-20 23:55:00
7:15 PM,84.2,58.8,42,29.88,10.0,Calm,Calm,-,N/A,,Mostly Cloudy,0,2013-07-21 00:15:00
7:35 PM,82.9,59.7,45,29.89,10.0,East,4.6,-,N/A,,Mostly Cloudy,100,2013-07-21 00:35:00
7:55 PM,80.4,60.1,50,29.89,10.0,SE,5.8,-,N/A,,Mostly Cloudy,140,2013-07-21 00:55:00
8:15 PM,79.5,61.7,54,29.90,10.0,SE,3.5,-,N/A,,Overcast,130,2013-07-21 01:15:00
8:35 PM,78.8,63.1,59,29.91,10.0,East,3.5,-,N/A,,Overcast,80,2013-07-21 01:35:00
8:55 PM,79.0,59.0,50,29.92,10.0,ENE,9.2,-,N/A,,Overcast,60,2013-07-21 01:55:00
9:15 PM,77.9,60.3,54,29.94,10.0,NNE,9.2,-,N/A,,Overcast,30,2013-07-21 02:15:00
9:35 PM,72.7,64.2,75,29.95,10.0,North,19.6,27.6,N/A,,Mostly Cloudy,10,2013-07-21 02:35:00
9:55 PM,72.0,65.3,79,29.95,10.0,ENE,16.1,-,N/A,,Mostly Cloudy,60,2013-07-21 02:55:00
10:15 PM,72.0,62.8,73,29.95,10.0,NE,12.7,-,N/A,,Mostly Cloudy,40,2013-07-21 03:15:00
10:35 PM,70.7,63.1,77,29.94,10.0,ENE,10.4,-,N/A,,Scattered Clouds,60,2013-07-21 03:35:00
10:55 PM,70.7,64.0,79,29.95,10.0,NE,6.9,-,N/A,,Scattered Clouds,50,2013-07-21 03:55:00
11:15 PM,70.3,64.0,80,29.95,10.0,East,4.6,-,N/A,,Scattered Clouds,90,2013-07-21 04:15:00
11:35 PM,70.2,65.3,85,29.95,10.0,East,5.8,-,N/A,,Clear,80,2013-07-21 04:35:00
11:55 PM,70.5,66.6,87,29.96,10.0,East,5.8,-,N/A,,Clear,90,2013-07-21 04:55:00